Location: Guferjoch
(46.7462°N, 8.4506°E)
Time: 00:21:47
(UTC+00:00)

NOSS 2-1 (C) - Pass Details

Date: 14 July 2020
Orbit: 443 x 1759 km, 63.3° (Epoch: 29 July)

Event Time Altitude Azimuth Distance (km) Brightness Sun altitude
Rises 00:25:33 0° 319° (NW) 3,030 7.6 -20.6°
Reaches altitude 10° 00:27:34 10° 319° (NW) 2,253 6.9 -20.5°
Maximum altitude 00:32:45 83° 232° (SW) 938 4.3 -20.3°
Enters shadow 00:39:09 14° 146° (SE) 2,790 6.5 -20.0°
